When you browse on this site, cookies collect data to enhance your experience and personalize the content and advertising you see.
Visit our Privacy Policy to learn more. By continuing to use the site, you agree to this use of cookies and data.
  • In Hungary
  • List of Countries
  • For 7 days
  • Water Temperature
  • Satellite Maps
  • Weather Map
  • News
  • Weather Widgets
  • user-avatar
    Login

    Hourly Weather Kanakapura

    Today, 21 July, Sunday

    Time Temperature Precipitation Wind Pressure Humidity
    00:00 +25°C° 0 mm 4 mps 700 mmHg 84%
    01:00 +25°C° 0 mm 4 mps 699 mmHg 84%
    02:00 +23°C° 0 mm 4 mps 699 mmHg 84%
    03:00 +23°C° 0 mm 4 mps 699 mmHg 84%
    04:00 +23°C° 0 mm 4 mps 698 mmHg 84%
    05:00 +24°C° 0 mm 2 mps 698 mmHg 86%
    06:00 +25°C° 0 mm 3 mps 699 mmHg 82%
    07:00 +26°C° 0 mm 4 mps 699 mmHg 79%
    08:00 +26°C° 0 mm 5 mps 700 mmHg 75%
    09:00 +27°C° 0 mm 6 mps 700 mmHg 72%
    10:00 +28°C° 0 mm 6 mps 700 mmHg 69%
    11:00 +29°C° 0 mm 7 mps 700 mmHg 66%
    12:00 +30°C° 0.1 mm 7 mps 700 mmHg 65%
    13:00 +31°C° 0.1 mm 8 mps 699 mmHg 63%
    14:00 +31°C° 0.1 mm 8 mps 699 mmHg 62%
    15:00 +29°C° 0 mm 7 mps 698 mmHg 65%
    16:00 +28°C° 0 mm 7 mps 698 mmHg 68%
    17:00 +28°C° 0 mm 6 mps 698 mmHg 69%
    18:00 +27°C° 0.1 mm 6 mps 699 mmHg 73%
    19:00 +27°C° 0.1 mm 5 mps 699 mmHg 76%
    20:00 +26°C° 0.1 mm 5 mps 700 mmHg 80%
    21:00 +26°C° 0.6 mm 5 mps 700 mmHg 82%
    22:00 +25°C° 0.6 mm 5 mps 700 mmHg 84%
    23:00 +25°C° 0.6 mm 5 mps 700 mmHg 86%

    Tomorrow, 22 July, Monday

    Time Temperature Precipitation Wind Pressure Humidity
    00:00 +25°C° 0.1 mm 5 mps 700 mmHg 86%
    01:00 +25°C° 0.1 mm 5 mps 699 mmHg 85%
    02:00 +25°C° 0.1 mm 5 mps 699 mmHg 85%
    03:00 +23°C° 0.1 mm 5 mps 699 mmHg 85%
    04:00 +23°C° 0.1 mm 5 mps 698 mmHg 86%
    05:00 +23°C° 0.1 mm 4 mps 698 mmHg 86%
    06:00 +23°C° 0.3 mm 4 mps 699 mmHg 85%
    07:00 +25°C° 0.3 mm 5 mps 699 mmHg 84%
    08:00 +25°C° 0.3 mm 5 mps 700 mmHg 82%
    09:00 +26°C° 0.1 mm 5 mps 700 mmHg 80%
    10:00 +26°C° 0.1 mm 6 mps 700 mmHg 77%
    11:00 +27°C° 0.1 mm 6 mps 700 mmHg 75%
    12:00 +27°C° 0.1 mm 7 mps 699 mmHg 74%
    13:00 +27°C° 0.1 mm 7 mps 699 mmHg 74%
    14:00 +27°C° 0.1 mm 7 mps 698 mmHg 74%
    15:00 +26°C° 0.1 mm 7 mps 698 mmHg 76%
    16:00 +26°C° 0.1 mm 6 mps 698 mmHg 77%
    17:00 +26°C° 0.1 mm 6 mps 698 mmHg 79%
    18:00 +25°C° 0.3 mm 5 mps 699 mmHg 81%
    19:00 +25°C° 0.3 mm 5 mps 699 mmHg 83%
    20:00 +23°C° 0.3 mm 4 mps 700 mmHg 86%
    21:00 +23°C° 0.2 mm 5 mps 700 mmHg 87%
    22:00 +23°C° 0.2 mm 5 mps 699 mmHg 88%
    23:00 +23°C° 0.2 mm 5 mps 699 mmHg 90%

    Day after tomorrow, 23 July, Tuesday

    Time Temperature Precipitation Wind Pressure Humidity
    00:00 +23°C° 1 mm 5 mps 699 mmHg 90%
    01:00 +22°C° 1 mm 6 mps 698 mmHg 90%
    02:00 +22°C° 1 mm 6 mps 698 mmHg 91%
    03:00 +22°C° 2.3 mm 6 mps 698 mmHg 91%
    04:00 +22°C° 2.3 mm 5 mps 697 mmHg 91%
    05:00 +21°C° 2.3 mm 5 mps 697 mmHg 91%
    06:00 +21°C° 4 mm 5 mps 698 mmHg 92%
    07:00 +21°C° 4 mm 5 mps 698 mmHg 93%
    08:00 +21°C° 4 mm 5 mps 699 mmHg 94%
    09:00 +21°C° 2.7 mm 5 mps 699 mmHg 94%
    10:00 +21°C° 2.7 mm 5 mps 699 mmHg 93%
    11:00 +21°C° 2.7 mm 5 mps 699 mmHg 93%
    12:00 +22°C° 0.8 mm 5 mps 699 mmHg 92%
    13:00 +22°C° 0.8 mm 5 mps 698 mmHg 91%
    14:00 +22°C° 0.8 mm 5 mps 698 mmHg 90%
    15:00 +22°C° 0.3 mm 5 mps 698 mmHg 90%
    16:00 +22°C° 0.3 mm 5 mps 698 mmHg 90%
    17:00 +22°C° 0.3 mm 5 mps 698 mmHg 90%
    18:00 +22°C° 0 mm 5 mps 698 mmHg 91%
    19:00 +22°C° 0 mm 5 mps 699 mmHg 91%
    20:00 +22°C° 0 mm 4 mps 699 mmHg 91%
    21:00 +22°C° 0.2 mm 4 mps 699 mmHg 92%
    22:00 +22°C° 0.2 mm 4 mps 699 mmHg 92%
    23:00 +22°C° 0.2 mm 4 mps 700 mmHg 93%

    24 July, Wednesday

    Time Temperature Precipitation Wind Pressure Humidity
    00:00 +22°C° 0.1 mm 4 mps 699 mmHg 93%
    01:00 +22°C° 0.1 mm 4 mps 699 mmHg 93%
    02:00 +22°C° 0.1 mm 4 mps 698 mmHg 92%
    03:00 +22°C° 0 mm 4 mps 698 mmHg 92%
    04:00 +22°C° 0 mm 4 mps 698 mmHg 92%
    05:00 +22°C° 0 mm 4 mps 698 mmHg 91%
    06:00 +23°C° 0 mm 4 mps 699 mmHg 88%
    07:00 +23°C° 0 mm 5 mps 700 mmHg 84%
    08:00 +24°C° 0 mm 6 mps 700 mmHg 80%
    09:00 +26°C° 0 mm 6 mps 700 mmHg 76%
    10:00 +27°C° 0 mm 6 mps 700 mmHg 72%
    11:00 +28°C° 0 mm 7 mps 701 mmHg 67%
    12:00 +29°C° 0.1 mm 6 mps 700 mmHg 65%
    13:00 +30°C° 0.1 mm 6 mps 699 mmHg 63%
    14:00 +32°C° 0.1 mm 6 mps 699 mmHg 60%
    15:00 +30°C° 0.9 mm 6 mps 699 mmHg 63%
    16:00 +29°C° 0.9 mm 6 mps 699 mmHg 67%
    17:00 +28°C° 0.9 mm 6 mps 699 mmHg 70%
    18:00 +27°C° 0.1 mm 5 mps 699 mmHg 74%
    19:00 +26°C° 0.1 mm 5 mps 700 mmHg 77%
    20:00 +25°C° 0.1 mm 4 mps 701 mmHg 81%
    21:00 +25°C° 0 mm 4 mps 701 mmHg 83%
    22:00 +25°C° 0 mm 4 mps 701 mmHg 85%
    23:00 +24°C° 0 mm 3 mps 701 mmHg 87%

    25 July, Thursday

    Time Temperature Precipitation Wind Pressure Humidity
    00:00 +24°C° 0 mm 3 mps 701 mmHg 88%
    01:00 +24°C° 0 mm 3 mps 700 mmHg 89%
    02:00 +24°C° 0 mm 3 mps 700 mmHg 90%
    03:00 +24°C° 0 mm 3 mps 700 mmHg 91%
    04:00 +22°C° 0 mm 3 mps 700 mmHg 91%
    05:00 +22°C° 0 mm 3 mps 700 mmHg 91%
    06:00 +24°C° 0 mm 3 mps 701 mmHg 88%
    07:00 +25°C° 0 mm 4 mps 701 mmHg 84%
    08:00 +26°C° 0 mm 5 mps 702 mmHg 80%
    09:00 +27°C° 0 mm 5 mps 702 mmHg 74%
    10:00 +28°C° 0 mm 6 mps 702 mmHg 69%
    11:00 +30°C° 0 mm 6 mps 702 mmHg 63%
    12:00 +30°C° 0.4 mm 6 mps 702 mmHg 61%
    13:00 +32°C° 0.4 mm 6 mps 701 mmHg 59%
    14:00 +32°C° 0.4 mm 6 mps 700 mmHg 57%
    15:00 +32°C° 2.1 mm 5 mps 700 mmHg 61%
    16:00 +30°C° 2.1 mm 5 mps 700 mmHg 64%
    17:00 +29°C° 2.1 mm 5 mps 700 mmHg 68%
    18:00 +28°C° 0.7 mm 5 mps 700 mmHg 72%
    19:00 +27°C° 0.7 mm 4 mps 701 mmHg 76%
    20:00 +26°C° 0.7 mm 4 mps 702 mmHg 80%
    21:00 +26°C° 0 mm 4 mps 702 mmHg 82%
    22:00 +25°C° 0 mm 4 mps 702 mmHg 84%
    23:00 +25°C° 0 mm 4 mps 702 mmHg 86%

    26 July, Friday

    Time Temperature Precipitation Wind Pressure Humidity
    00:00 +23°C° 0 mm 4 mps 701 mmHg 87%
    01:00 +23°C° 0 mm 4 mps 701 mmHg 88%
    02:00 +23°C° 0 mm 4 mps 700 mmHg 89%
    03:00 +23°C° 0 mm 4 mps 700 mmHg 89%
    04:00 +24°C° 0 mm 3 mps 700 mmHg 90%
    05:00 +22°C° 0 mm 3 mps 700 mmHg 90%
    06:00 +23°C° 0 mm 4 mps 701 mmHg 87%
    07:00 +25°C° 0 mm 4 mps 701 mmHg 83%
    08:00 +26°C° 0 mm 5 mps 702 mmHg 79%
    09:00 +27°C° 0 mm 5 mps 702 mmHg 75%
    10:00 +28°C° 0 mm 5 mps 702 mmHg 71%
    11:00 +29°C° 0 mm 6 mps 702 mmHg 66%
    12:00 +29°C° 0.3 mm 6 mps 701 mmHg 65%
    13:00 +29°C° 0.3 mm 6 mps 701 mmHg 63%
    14:00 +29°C° 0.3 mm 6 mps 700 mmHg 62%
    15:00 +28°C° 0.4 mm 6 mps 700 mmHg 65%
    16:00 +27°C° 0.4 mm 6 mps 700 mmHg 69%
    17:00 +26°C° 0.4 mm 6 mps 700 mmHg 73%
    18:00 +26°C° 0 mm 5 mps 701 mmHg 75%
    19:00 +25°C° 0 mm 5 mps 701 mmHg 76%
    20:00 +25°C° 0 mm 4 mps 702 mmHg 78%
    21:00 +23°C° 0 mm 4 mps 702 mmHg 79%
    22:00 +23°C° 0 mm 4 mps 702 mmHg 81%
    23:00 +23°C° 0 mm 4 mps 702 mmHg 82%
    Show more